owner,sensor,date,latitude,longitude,vertical_datum,sea_water_practical_salinity,qcFlag 
COMPS,ioos:station:USF.COMPS:ANC:1,2009-10-01T00:00:00Z,28.1930,-82.7890,1.0,19.399,1111122 
COMPS,ioos:station:USF.COMPS:ANC:1,2009-10-01T00:06:00Z,28.1930,-82.7890,1.0,19.282,1111122 
COMPS,ioos:station:USF.COMPS:ANC:1,2009-10-01T00:12:00Z,28.1930,-82.7890,1.0,19.22,1111122 
COMPS,ioos:station:USF.COMPS:ANC:1,2009-10-01T00:18:00Z,28.1930,-82.7890,1.0,19.175,1111122 
COMPS,ioos:station:USF.COMPS:ANC:1,2009-10-01T00:24:00Z,28.1930,-82.7890,1.0,19.154,1111122 
COMPS,ioos:station:USF.COMPS:ANC:1,2009-10-01T00:30:00Z,28.1930,-82.7890,1.0,19.142,1111122 
COMPS,ioos:station:USF.COMPS:ANC:1,2009-10-01T00:36:00Z,28.1930,-82.7890,1.0,19.197,1111122 
COMPS,ioos:station:USF.COMPS:ANC:1,2009-10-01T00:42:00Z,28.1930,-82.7890,1.0,19.322,1111122 
COMPS,ioos:station:USF.COMPS:ANC:1,2009-10-01T00:48:00Z,28.1930,-82.7890,1.0,19.507,1111122 
COMPS,ioos:station:USF.COMPS:ANC:1,2009-10-01T00:54:00Z,28.1930,-82.7890,1.0,19.686,1111122 
COMPS,ioos:station:USF.COMPS:ANC:1,2009-10-01T01:00:00Z,28.1930,-82.7890,1.0,19.87,1111122 
COMPS,ioos:station:USF.COMPS:ANC:1,2009-10-01T01:06:00Z,28.1930,-82.7890,1.0,20.176,1111122 
COMPS,ioos:station:USF.COMPS:ANC:1,2009-10-01T01:12:00Z,28.1930,-82.7890,1.0,20.498,1111122 
COMPS,ioos:station:USF.COMPS:ANC:1,2009-10-01T01:18:00Z,28.1930,-82.7890,1.0,20.656,1111122 
COMPS,ioos:station:USF.COMPS:ANC:1,2009-10-01T01:24:00Z,28.1930,-82.7890,1.0,20.793,1111122 
COMPS,ioos:station:USF.COMPS:ANC:1,2009-10-01T01:30:00Z,28.1930,-82.7890,1.0,20.945,1111122 
COMPS,ioos:station:USF.COMPS:ANC:1,2009-10-01T01:36:00Z,28.1930,-82.7890,1.0,21.177,1111122 
COMPS,ioos:station:USF.COMPS:ANC:1,2009-10-01T01:42:00Z,28.1930,-82.7890,1.0,21.294,1111122 
COMPS,ioos:station:USF.COMPS:ANC:1,2009-10-01T01:48:00Z,28.1930,-82.7890,1.0,21.391,1111122 
COMPS,ioos:station:USF.COMPS:ANC:1,2009-10-01T01:54:00Z,28.1930,-82.7890,1.0,21.531,1111122 
COMPS,ioos:station:USF.COMPS:ANC:1,2009-10-01T02:00:00Z,28.1930,-82.7890,1.0,21.696,1111122 
COMPS,ioos:station:USF.COMPS:ANC:1,2009-10-01T02:06:00Z,28.1930,-82.7890,1.0,21.863,1111122 
COMPS,ioos:station:USF.COMPS:ANC:1,2009-10-01T02:12:00Z,28.1930,-82.7890,1.0,22.096,1111122 
COMPS,ioos:station:USF.COMPS:ANC:1,2009-10-01T02:18:00Z,28.1930,-82.7890,1.0,22.313,1111122 
COMPS,ioos:station:USF.COMPS:ANC:1,2009-10-01T02:24:00Z,28.1930,-82.7890,1.0,22.525,1111122 
COMPS,ioos:station:USF.COMPS:ANC:1,2009-10-01T02:30:00Z,28.1930,-82.7890,1.0,22.478,1111122 
COMPS,ioos:station:USF.COMPS:ANC:1,2009-10-01T02:36:00Z,28.1930,-82.7890,1.0,22.554,1111122 
COMPS,ioos:station:USF.COMPS:ANC:1,2009-10-01T02:42:00Z,28.1930,-82.7890,1.0,22.684,1111122 
COMPS,ioos:station:USF.COMPS:ANC:1,2009-10-01T02:48:00Z,28.1930,-82.7890,1.0,23.04,1111122 
COMPS,ioos:station:USF.COMPS:ANC:1,2009-10-01T02:54:00Z,28.1930,-82.7890,1.0,23.102,1111122 
COMPS,ioos:station:USF.COMPS:ANC:1,2009-10-01T03:00:00Z,28.1930,-82.7890,1.0,23.29,1111122 
COMPS,ioos:station:USF.COMPS:ANC:1,2009-10-01T03:06:00Z,28.1930,-82.7890,1.0,23.428,1111122 
COMPS,ioos:station:USF.COMPS:ANC:1,2009-10-01T03:12:00Z,28.1930,-82.7890,1.0,23.498,1111122 
COMPS,ioos:station:USF.COMPS:ANC:1,2009-10-01T03:18:00Z,28.1930,-82.7890,1.0,23.564,1111122 
COMPS,ioos:station:USF.COMPS:ANC:1,2009-10-01T03:24:00Z,28.1930,-82.7890,1.0,23.69,1111122 
COMPS,ioos:station:USF.COMPS:ANC:1,2009-10-01T03:30:00Z,28.1930,-82.7890,1.0,23.82,1111122 
COMPS,ioos:station:USF.COMPS:ANC:1,2009-10-01T03:36:00Z,28.1930,-82.7890,1.0,23.916,1111122 
COMPS,ioos:station:USF.COMPS:ANC:1,2009-10-01T03:42:00Z,28.1930,-82.7890,1.0,24.024,1111122 
COMPS,ioos:station:USF.COMPS:ANC:1,2009-10-01T03:48:00Z,28.1930,-82.7890,1.0,24.166,1111122 
COMPS,ioos:station:USF.COMPS:ANC:1,2009-10-01T03:54:00Z,28.1930,-82.7890,1.0,24.291,1111122 
COMPS,ioos:station:USF.COMPS:ANC:1,2009-10-01T04:00:00Z,28.1930,-82.7890,1.0,24.401,1111122 
COMPS,ioos:station:USF.COMPS:ANC:1,2009-10-01T04:06:00Z,28.1930,-82.7890,1.0,24.5,1111122 
COMPS,ioos:station:USF.COMPS:ANC:1,2009-10-01T04:12:00Z,28.1930,-82.7890,1.0,24.563,1111122 
COMPS,ioos:station:USF.COMPS:ANC:1,2009-10-01T04:18:00Z,28.1930,-82.7890,1.0,24.627,1111122 
COMPS,ioos:station:USF.COMPS:ANC:1,2009-10-01T04:24:00Z,28.1930,-82.7890,1.0,24.669,1111122 
COMPS,ioos:station:USF.COMPS:ANC:1,2009-10-01T04:30:00Z,28.1930,-82.7890,1.0,24.742,1111122 
COMPS,ioos:station:USF.COMPS:ANC:1,2009-10-01T04:36:00Z,28.1930,-82.7890,1.0,24.811,1111122 
COMPS,ioos:station:USF.COMPS:ANC:1,2009-10-01T04:42:00Z,28.1930,-82.7890,1.0,24.882,1111122 
COMPS,ioos:station:USF.COMPS:ANC:1,2009-10-01T04:48:00Z,28.1930,-82.7890,1.0,24.958,1111122 
COMPS,ioos:station:USF.COMPS:ANC:1,2009-10-01T04:54:00Z,28.1930,-82.7890,1.0,25.053,1111122 
COMPS,ioos:station:USF.COMPS:ANC:1,2009-10-01T05:00:00Z,28.1930,-82.7890,1.0,25.117,1111122 
COMPS,ioos:station:USF.COMPS:ANC:1,2009-10-01T05:06:00Z,28.1930,-82.7890,1.0,25.166,1111122 
COMPS,ioos:station:USF.COMPS:ANC:1,2009-10-01T05:12:00Z,28.1930,-82.7890,1.0,25.262,1111122 
COMPS,ioos:station:USF.COMPS:ANC:1,2009-10-01T05:18:00Z,28.1930,-82.7890,1.0,25.313,1111122 
COMPS,ioos:station:USF.COMPS:ANC:1,2009-10-01T05:24:00Z,28.1930,-82.7890,1.0,25.354,1111122 
COMPS,ioos:station:USF.COMPS:ANC:1,2009-10-01T05:30:00Z,28.1930,-82.7890,1.0,25.378,1111122 
COMPS,ioos:station:USF.COMPS:ANC:1,2009-10-01T05:36:00Z,28.1930,-82.7890,1.0,25.414,1111122 
COMPS,ioos:station:USF.COMPS:ANC:1,2009-10-01T05:42:00Z,28.1930,-82.7890,1.0,25.445,1111122 
COMPS,ioos:station:USF.COMPS:ANC:1,2009-10-01T05:48:00Z,28.1930,-82.7890,1.0,25.456,1111122 
COMPS,ioos:station:USF.COMPS:ANC:1,2009-10-01T05:54:00Z,28.1930,-82.7890,1.0,25.499,1111122 
COMPS,ioos:station:USF.COMPS:ANC:1,2009-10-01T06:00:00Z,28.1930,-82.7890,1.0,25.511,1111122 
COMPS,ioos:station:USF.COMPS:ANC:1,2009-10-01T06:06:00Z,28.1930,-82.7890,1.0,25.539,1111122 
COMPS,ioos:station:USF.COMPS:ANC:1,2009-10-01T06:12:00Z,28.1930,-82.7890,1.0,25.59,1111122 
COMPS,ioos:station:USF.COMPS:ANC:1,2009-10-01T06:18:00Z,28.1930,-82.7890,1.0,25.628,1111122 
COMPS,ioos:station:USF.COMPS:ANC:1,2009-10-01T06:24:00Z,28.1930,-82.7890,1.0,25.65,1111122 
COMPS,ioos:station:USF.COMPS:ANC:1,2009-10-01T06:30:00Z,28.1930,-82.7890,1.0,25.674,1111122 
COMPS,ioos:station:USF.COMPS:ANC:1,2009-10-01T06:36:00Z,28.1930,-82.7890,1.0,25.697,1111122 
COMPS,ioos:station:USF.COMPS:ANC:1,2009-10-01T06:42:00Z,28.1930,-82.7890,1.0,25.728,1111122 
COMPS,ioos:station:USF.COMPS:ANC:1,2009-10-01T06:48:00Z,28.1930,-82.7890,1.0,25.748,1111122 
COMPS,ioos:station:USF.COMPS:ANC:1,2009-10-01T06:54:00Z,28.1930,-82.7890,1.0,25.771,1111122 
COMPS,ioos:station:USF.COMPS:ANC:1,2009-10-01T07:00:00Z,28.1930,-82.7890,1.0,25.793,1111122 
COMPS,ioos:station:USF.COMPS:ANC:1,2009-10-01T07:06:00Z,28.1930,-82.7890,1.0,25.822,1111122 
COMPS,ioos:station:USF.COMPS:ANC:1,2009-10-01T07:12:00Z,28.1930,-82.7890,1.0,25.827,1111122 
COMPS,ioos:station:USF.COMPS:ANC:1,2009-10-01T07:18:00Z,28.1930,-82.7890,1.0,25.812,1111122 
COMPS,ioos:station:USF.COMPS:ANC:1,2009-10-01T07:24:00Z,28.1930,-82.7890,1.0,25.836,1111122 
COMPS,ioos:station:USF.COMPS:ANC:1,2009-10-01T07:30:00Z,28.1930,-82.7890,1.0,25.853,1111122 
COMPS,ioos:station:USF.COMPS:ANC:1,2009-10-01T07:36:00Z,28.1930,-82.7890,1.0,25.842,1111122 
COMPS,ioos:station:USF.COMPS:ANC:1,2009-10-01T07:42:00Z,28.1930,-82.7890,1.0,25.836,1111122 
COMPS,ioos:station:USF.COMPS:ANC:1,2009-10-01T07:48:00Z,28.1930,-82.7890,1.0,25.842,1111122 
COMPS,ioos:station:USF.COMPS:ANC:1,2009-10-01T07:54:00Z,28.1930,-82.7890,1.0,25.822,1111122 
COMPS,ioos:station:USF.COMPS:ANC:1,2009-10-01T08:00:00Z,28.1930,-82.7890,1.0,25.815,1111122 
COMPS,ioos:station:USF.COMPS:ANC:1,2009-10-01T08:06:00Z,28.1930,-82.7890,1.0,25.817,1111122 
COMPS,ioos:station:USF.COMPS:ANC:1,2009-10-01T08:12:00Z,28.1930,-82.7890,1.0,25.803,1111122 
COMPS,ioos:station:USF.COMPS:ANC:1,2009-10-01T08:18:00Z,28.1930,-82.7890,1.0,25.808,1111122 
COMPS,ioos:station:USF.COMPS:ANC:1,2009-10-01T08:24:00Z,28.1930,-82.7890,1.0,25.801,1111122 
COMPS,ioos:station:USF.COMPS:ANC:1,2009-10-01T08:30:00Z,28.1930,-82.7890,1.0,25.739,1111122 
COMPS,ioos:station:USF.COMPS:ANC:1,2009-10-01T08:36:00Z,28.1930,-82.7890,1.0,25.754,1111122 
COMPS,ioos:station:USF.COMPS:ANC:1,2009-10-01T08:42:00Z,28.1930,-82.7890,1.0,25.76,1111122 
COMPS,ioos:station:USF.COMPS:ANC:1,2009-10-01T08:48:00Z,28.1930,-82.7890,1.0,25.733,1111122 
COMPS,ioos:station:USF.COMPS:ANC:1,2009-10-01T08:54:00Z,28.1930,-82.7890,1.0,25.681,1111122 
COMPS,ioos:station:USF.COMPS:ANC:1,2009-10-01T09:00:00Z,28.1930,-82.7890,1.0,25.657,1111122 
COMPS,ioos:station:USF.COMPS:ANC:1,2009-10-01T09:06:00Z,28.1930,-82.7890,1.0,25.614,1111122 
COMPS,ioos:station:USF.COMPS:ANC:1,2009-10-01T09:12:00Z,28.1930,-82.7890,1.0,25.505,1111122 
COMPS,ioos:station:USF.COMPS:ANC:1,2009-10-01T09:18:00Z,28.1930,-82.7890,1.0,25.362,1111122 
COMPS,ioos:station:USF.COMPS:ANC:1,2009-10-01T09:24:00Z,28.1930,-82.7890,1.0,25.264,1111122 
COMPS,ioos:station:USF.COMPS:ANC:1,2009-10-01T09:30:00Z,28.1930,-82.7890,1.0,25.149,1111122 
COMPS,ioos:station:USF.COMPS:ANC:1,2009-10-01T09:36:00Z,28.1930,-82.7890,1.0,25.004,1111122 
COMPS,ioos:station:USF.COMPS:ANC:1,2009-10-01T09:42:00Z,28.1930,-82.7890,1.0,24.814,1111122 
COMPS,ioos:station:USF.COMPS:ANC:1,2009-10-01T09:48:00Z,28.1930,-82.7890,1.0,24.39,1111122 
COMPS,ioos:station:USF.COMPS:ANC:1,2009-10-01T09:54:00Z,28.1930,-82.7890,1.0,24.365,1111122 
COMPS,ioos:station:USF.COMPS:ANC:1,2009-10-01T10:00:00Z,28.1930,-82.7890,1.0,24.148,1111122 
COMPS,ioos:station:USF.COMPS:ANC:1,2009-10-01T10:06:00Z,28.1930,-82.7890,1.0,23.935,1111122 
COMPS,ioos:station:USF.COMPS:ANC:1,2009-10-01T10:12:00Z,28.1930,-82.7890,1.0,23.726,1111122 
COMPS,ioos:station:USF.COMPS:ANC:1,2009-10-01T10:18:00Z,28.1930,-82.7890,1.0,23.585,1111122 
COMPS,ioos:station:USF.COMPS:ANC:1,2009-10-01T10:24:00Z,28.1930,-82.7890,1.0,23.389,1111122 
COMPS,ioos:station:USF.COMPS:ANC:1,2009-10-01T10:30:00Z,28.1930,-82.7890,1.0,23.166,1111122 
COMPS,ioos:station:USF.COMPS:ANC:1,2009-10-01T10:36:00Z,28.1930,-82.7890,1.0,22.935,1111122 
COMPS,ioos:station:USF.COMPS:ANC:1,2009-10-01T10:42:00Z,28.1930,-82.7890,1.0,22.652,1111122 
COMPS,ioos:station:USF.COMPS:ANC:1,2009-10-01T10:48:00Z,28.1930,-82.7890,1.0,22.49,1111122 
COMPS,ioos:station:USF.COMPS:ANC:1,2009-10-01T10:54:00Z,28.1930,-82.7890,1.0,22.315,1111122 
COMPS,ioos:station:USF.COMPS:ANC:1,2009-10-01T11:00:00Z,28.1930,-82.7890,1.0,22.132,1111122 
COMPS,ioos:station:USF.COMPS:ANC:1,2009-10-01T11:06:00Z,28.1930,-82.7890,1.0,21.948,1111122 
COMPS,ioos:station:USF.COMPS:ANC:1,2009-10-01T11:12:00Z,28.1930,-82.7890,1.0,21.79,1111122 
COMPS,ioos:station:USF.COMPS:ANC:1,2009-10-01T11:18:00Z,28.1930,-82.7890,1.0,21.671,1111122 
COMPS,ioos:station:USF.COMPS:ANC:1,2009-10-01T11:24:00Z,28.1930,-82.7890,1.0,21.507,1111122 
COMPS,ioos:station:USF.COMPS:ANC:1,2009-10-01T11:30:00Z,28.1930,-82.7890,1.0,21.34,1111122 
COMPS,ioos:station:USF.COMPS:ANC:1,2009-10-01T11:36:00Z,28.1930,-82.7890,1.0,21.17,1111122 
COMPS,ioos:station:USF.COMPS:ANC:1,2009-10-01T11:42:00Z,28.1930,-82.7890,1.0,20.998,1111122 
COMPS,ioos:station:USF.COMPS:ANC:1,2009-10-01T11:48:00Z,28.1930,-82.7890,1.0,20.895,1111122 
COMPS,ioos:station:USF.COMPS:ANC:1,2009-10-01T11:54:00Z,28.1930,-82.7890,1.0,20.746,1111122 
COMPS,ioos:station:USF.COMPS:ANC:1,2009-10-01T12:00:00Z,28.1930,-82.7890,1.0,20.626,1111122 
COMPS,ioos:station:USF.COMPS:ANC:1,2009-10-01T12:06:00Z,28.1930,-82.7890,1.0,20.555,1111122 
COMPS,ioos:station:USF.COMPS:ANC:1,2009-10-01T12:12:00Z,28.1930,-82.7890,1.0,20.585,1111122 
COMPS,ioos:station:USF.COMPS:ANC:1,2009-10-01T12:18:00Z,28.1930,-82.7890,1.0,20.647,1111122 
COMPS,ioos:station:USF.COMPS:ANC:1,2009-10-01T12:24:00Z,28.1930,-82.7890,1.0,20.632,1111122 
COMPS,ioos:station:USF.COMPS:ANC:1,2009-10-01T12:30:00Z,28.1930,-82.7890,1.0,20.908,1111122 
COMPS,ioos:station:USF.COMPS:ANC:1,2009-10-01T12:36:00Z,28.1930,-82.7890,1.0,21.136,1111122 
COMPS,ioos:station:USF.COMPS:ANC:1,2009-10-01T12:42:00Z,28.1930,-82.7890,1.0,21.274,1111122 
COMPS,ioos:station:USF.COMPS:ANC:1,2009-10-01T12:48:00Z,28.1930,-82.7890,1.0,21.433,1111122 
COMPS,ioos:station:USF.COMPS:ANC:1,2009-10-01T12:54:00Z,28.1930,-82.7890,1.0,21.814,1111122 
COMPS,ioos:station:USF.COMPS:ANC:1,2009-10-01T13:00:00Z,28.1930,-82.7890,1.0,22.064,1111122 
COMPS,ioos:station:USF.COMPS:ANC:1,2009-10-01T13:06:00Z,28.1930,-82.7890,1.0,22.394,1111122 
COMPS,ioos:station:USF.COMPS:ANC:1,2009-10-01T13:12:00Z,28.1930,-82.7890,1.0,22.622,1111122 
COMPS,ioos:station:USF.COMPS:ANC:1,2009-10-01T13:18:00Z,28.1930,-82.7890,1.0,22.736,1111122 
COMPS,ioos:station:USF.COMPS:ANC:1,2009-10-01T13:24:00Z,28.1930,-82.7890,1.0,22.861,1111122 
COMPS,ioos:station:USF.COMPS:ANC:1,2009-10-01T13:30:00Z,28.1930,-82.7890,1.0,23.139,1111122 
COMPS,ioos:station:USF.COMPS:ANC:1,2009-10-01T13:36:00Z,28.1930,-82.7890,1.0,23.272,1111122 
COMPS,ioos:station:USF.COMPS:ANC:1,2009-10-01T13:42:00Z,28.1930,-82.7890,1.0,23.468,1111122 
COMPS,ioos:station:USF.COMPS:ANC:1,2009-10-01T13:48:00Z,28.1930,-82.7890,1.0,23.647,1111122 
COMPS,ioos:station:USF.COMPS:ANC:1,2009-10-01T13:54:00Z,28.1930,-82.7890,1.0,23.793,1111122 
COMPS,ioos:station:USF.COMPS:ANC:1,2009-10-01T14:00:00Z,28.1930,-82.7890,1.0,23.621,1111122 
COMPS,ioos:station:USF.COMPS:ANC:1,2009-10-01T14:06:00Z,28.1930,-82.7890,1.0,23.671,1111122 
COMPS,ioos:station:USF.COMPS:ANC:1,2009-10-01T14:12:00Z,28.1930,-82.7890,1.0,23.8,1111122 
COMPS,ioos:station:USF.COMPS:ANC:1,2009-10-01T14:18:00Z,28.1930,-82.7890,1.0,23.896,1111122 
COMPS,ioos:station:USF.COMPS:ANC:1,2009-10-01T14:24:00Z,28.1930,-82.7890,1.0,23.935,1111122 
COMPS,ioos:station:USF.COMPS:ANC:1,2009-10-01T14:30:00Z,28.1930,-82.7890,1.0,24.078,1111122 
COMPS,ioos:station:USF.COMPS:ANC:1,2009-10-01T14:36:00Z,28.1930,-82.7890,1.0,24.144,1111122 
COMPS,ioos:station:USF.COMPS:ANC:1,2009-10-01T14:42:00Z,28.1930,-82.7890,1.0,24.216,1111122 
COMPS,ioos:station:USF.COMPS:ANC:1,2009-10-01T14:48:00Z,28.1930,-82.7890,1.0,24.309,1111122 
COMPS,ioos:station:USF.COMPS:ANC:1,2009-10-01T14:54:00Z,28.1930,-82.7890,1.0,24.375,1111122 
COMPS,ioos:station:USF.COMPS:ANC:1,2009-10-01T15:00:00Z,28.1930,-82.7890,1.0,24.442,1111122 
COMPS,ioos:station:USF.COMPS:ANC:1,2009-10-01T15:06:00Z,28.1930,-82.7890,1.0,24.481,1111122 
COMPS,ioos:station:USF.COMPS:ANC:1,2009-10-01T15:12:00Z,28.1930,-82.7890,1.0,24.498,1111122 
COMPS,ioos:station:USF.COMPS:ANC:1,2009-10-01T15:18:00Z,28.1930,-82.7890,1.0,24.558,1111122 
COMPS,ioos:station:USF.COMPS:ANC:1,2009-10-01T15:24:00Z,28.1930,-82.7890,1.0,24.579,1111122 
COMPS,ioos:station:USF.COMPS:ANC:1,2009-10-01T15:30:00Z,28.1930,-82.7890,1.0,24.607,1111122 
COMPS,ioos:station:USF.COMPS:ANC:1,2009-10-01T15:36:00Z,28.1930,-82.7890,1.0,24.637,1111122 
COMPS,ioos:station:USF.COMPS:ANC:1,2009-10-01T15:42:00Z,28.1930,-82.7890,1.0,24.651,1111122 
COMPS,ioos:station:USF.COMPS:ANC:1,2009-10-01T15:48:00Z,28.1930,-82.7890,1.0,24.668,1111122 
COMPS,ioos:station:USF.COMPS:ANC:1,2009-10-01T15:54:00Z,28.1930,-82.7890,1.0,24.676,1111122 
COMPS,ioos:station:USF.COMPS:ANC:1,2009-10-01T16:00:00Z,28.1930,-82.7890,1.0,24.696,1111122 
COMPS,ioos:station:USF.COMPS:ANC:1,2009-10-01T16:06:00Z,28.1930,-82.7890,1.0,24.702,1111122 
COMPS,ioos:station:USF.COMPS:ANC:1,2009-10-01T16:12:00Z,28.1930,-82.7890,1.0,24.71,1111122 
COMPS,ioos:station:USF.COMPS:ANC:1,2009-10-01T16:18:00Z,28.1930,-82.7890,1.0,24.738,1111122 
COMPS,ioos:station:USF.COMPS:ANC:1,2009-10-01T16:24:00Z,28.1930,-82.7890,1.0,24.754,1111122 
COMPS,ioos:station:USF.COMPS:ANC:1,2009-10-01T16:30:00Z,28.1930,-82.7890,1.0,24.794,1111122 
COMPS,ioos:station:USF.COMPS:ANC:1,2009-10-01T16:36:00Z,28.1930,-82.7890,1.0,24.829,1111122 
COMPS,ioos:station:USF.COMPS:ANC:1,2009-10-01T16:42:00Z,28.1930,-82.7890,1.0,24.864,1111122 
COMPS,ioos:station:USF.COMPS:ANC:1,2009-10-01T16:48:00Z,28.1930,-82.7890,1.0,24.911,1111122 
COMPS,ioos:station:USF.COMPS:ANC:1,2009-10-01T16:54:00Z,28.1930,-82.7890,1.0,24.958,1111122 
COMPS,ioos:station:USF.COMPS:ANC:1,2009-10-01T17:00:00Z,28.1930,-82.7890,1.0,24.981,1111122 
COMPS,ioos:station:USF.COMPS:ANC:1,2009-10-01T17:06:00Z,28.1930,-82.7890,1.0,25.009,1111122 
COMPS,ioos:station:USF.COMPS:ANC:1,2009-10-01T17:12:00Z,28.1930,-82.7890,1.0,25.031,1111122 
COMPS,ioos:station:USF.COMPS:ANC:1,2009-10-01T17:18:00Z,28.1930,-82.7890,1.0,25.053,1111122 
COMPS,ioos:station:USF.COMPS:ANC:1,2009-10-01T17:24:00Z,28.1930,-82.7890,1.0,25.044,1111122 
COMPS,ioos:station:USF.COMPS:ANC:1,2009-10-01T17:30:00Z,28.1930,-82.7890,1.0,25.085,1111122 
COMPS,ioos:station:USF.COMPS:ANC:1,2009-10-01T17:36:00Z,28.1930,-82.7890,1.0,25.087,1111122 
COMPS,ioos:station:USF.COMPS:ANC:1,2009-10-01T17:42:00Z,28.1930,-82.7890,1.0,25.084,1111122 
COMPS,ioos:station:USF.COMPS:ANC:1,2009-10-01T17:48:00Z,28.1930,-82.7890,1.0,25.081,1111122 
COMPS,ioos:station:USF.COMPS:ANC:1,2009-10-01T17:54:00Z,28.1930,-82.7890,1.0,25.11,1111122 
COMPS,ioos:station:USF.COMPS:ANC:1,2009-10-01T18:00:00Z,28.1930,-82.7890,1.0,25.1,1111122 
COMPS,ioos:station:USF.COMPS:ANC:1,2009-10-01T18:06:00Z,28.1930,-82.7890,1.0,25.13,1111122 
COMPS,ioos:station:USF.COMPS:ANC:1,2009-10-01T18:12:00Z,28.1930,-82.7890,1.0,25.126,1111122 
COMPS,ioos:station:USF.COMPS:ANC:1,2009-10-01T18:18:00Z,28.1930,-82.7890,1.0,25.117,1111122 
COMPS,ioos:station:USF.COMPS:ANC:1,2009-10-01T18:24:00Z,28.1930,-82.7890,1.0,25.127,1111122 
COMPS,ioos:station:USF.COMPS:ANC:1,2009-10-01T18:30:00Z,28.1930,-82.7890,1.0,25.132,1111122 
COMPS,ioos:station:USF.COMPS:ANC:1,2009-10-01T18:36:00Z,28.1930,-82.7890,1.0,25.182,1111122 
COMPS,ioos:station:USF.COMPS:ANC:1,2009-10-01T18:42:00Z,28.1930,-82.7890,1.0,25.185,1111122 
COMPS,ioos:station:USF.COMPS:ANC:1,2009-10-01T18:48:00Z,28.1930,-82.7890,1.0,25.18,1111122 
COMPS,ioos:station:USF.COMPS:ANC:1,2009-10-01T18:54:00Z,28.1930,-82.7890,1.0,25.182,1111122 
COMPS,ioos:station:USF.COMPS:ANC:1,2009-10-01T19:00:00Z,28.1930,-82.7890,1.0,25.177,1111122 
COMPS,ioos:station:USF.COMPS:ANC:1,2009-10-01T19:06:00Z,28.1930,-82.7890,1.0,25.185,1111122 
COMPS,ioos:station:USF.COMPS:ANC:1,2009-10-01T19:12:00Z,28.1930,-82.7890,1.0,25.167,1111122 
COMPS,ioos:station:USF.COMPS:ANC:1,2009-10-01T19:18:00Z,28.1930,-82.7890,1.0,25.18,1111122 
COMPS,ioos:station:USF.COMPS:ANC:1,2009-10-01T19:24:00Z,28.1930,-82.7890,1.0,25.167,1111122 
COMPS,ioos:station:USF.COMPS:ANC:1,2009-10-01T19:30:00Z,28.1930,-82.7890,1.0,25.151,1111122 
COMPS,ioos:station:USF.COMPS:ANC:1,2009-10-01T19:36:00Z,28.1930,-82.7890,1.0,25.142,1111122 
COMPS,ioos:station:USF.COMPS:ANC:1,2009-10-01T19:42:00Z,28.1930,-82.7890,1.0,25.15,1111122 
COMPS,ioos:station:USF.COMPS:ANC:1,2009-10-01T19:48:00Z,28.1930,-82.7890,1.0,25.097,1111122 
COMPS,ioos:station:USF.COMPS:ANC:1,2009-10-01T19:54:00Z,28.1930,-82.7890,1.0,25.121,1111122 
COMPS,ioos:station:USF.COMPS:ANC:1,2009-10-01T20:00:00Z,28.1930,-82.7890,1.0,25.124,1111122 
COMPS,ioos:station:USF.COMPS:ANC:1,2009-10-01T20:06:00Z,28.1930,-82.7890,1.0,25.115,1111122 
COMPS,ioos:station:USF.COMPS:ANC:1,2009-10-01T20:12:00Z,28.1930,-82.7890,1.0,25.115,1111122 
COMPS,ioos:station:USF.COMPS:ANC:1,2009-10-01T20:18:00Z,28.1930,-82.7890,1.0,25.094,1111122 
COMPS,ioos:station:USF.COMPS:ANC:1,2009-10-01T20:24:00Z,28.1930,-82.7890,1.0,25.082,1111122 
COMPS,ioos:station:USF.COMPS:ANC:1,2009-10-01T20:30:00Z,28.1930,-82.7890,1.0,25.089,1111122 
COMPS,ioos:station:USF.COMPS:ANC:1,2009-10-01T20:36:00Z,28.1930,-82.7890,1.0,25.068,1111122 
COMPS,ioos:station:USF.COMPS:ANC:1,2009-10-01T20:42:00Z,28.1930,-82.7890,1.0,25.041,1111122 
COMPS,ioos:station:USF.COMPS:ANC:1,2009-10-01T20:48:00Z,28.1930,-82.7890,1.0,25.001,1111122 
COMPS,ioos:station:USF.COMPS:ANC:1,2009-10-01T20:54:00Z,28.1930,-82.7890,1.0,24.959,1111122 
COMPS,ioos:station:USF.COMPS:ANC:1,2009-10-01T21:00:00Z,28.1930,-82.7890,1.0,24.852,1111122 
COMPS,ioos:station:USF.COMPS:ANC:1,2009-10-01T21:06:00Z,28.1930,-82.7890,1.0,24.807,1111122 
COMPS,ioos:station:USF.COMPS:ANC:1,2009-10-01T21:12:00Z,28.1930,-82.7890,1.0,24.752,1111122 
COMPS,ioos:station:USF.COMPS:ANC:1,2009-10-01T21:18:00Z,28.1930,-82.7890,1.0,24.697,1111122 
COMPS,ioos:station:USF.COMPS:ANC:1,2009-10-01T21:24:00Z,28.1930,-82.7890,1.0,24.632,1111122 
COMPS,ioos:station:USF.COMPS:ANC:1,2009-10-01T21:30:00Z,28.1930,-82.7890,1.0,24.488,1111122 
COMPS,ioos:station:USF.COMPS:ANC:1,2009-10-01T21:36:00Z,28.1930,-82.7890,1.0,24.354,1111122 
COMPS,ioos:station:USF.COMPS:ANC:1,2009-10-01T21:42:00Z,28.1930,-82.7890,1.0,24.159,1111122 
COMPS,ioos:station:USF.COMPS:ANC:1,2009-10-01T21:48:00Z,28.1930,-82.7890,1.0,23.78,1111122 
COMPS,ioos:station:USF.COMPS:ANC:1,2009-10-01T21:54:00Z,28.1930,-82.7890,1.0,23.513,1111122 
COMPS,ioos:station:USF.COMPS:ANC:1,2009-10-01T22:00:00Z,28.1930,-82.7890,1.0,23.357,1111122 
COMPS,ioos:station:USF.COMPS:ANC:1,2009-10-01T22:06:00Z,28.1930,-82.7890,1.0,23.399,1111122 
COMPS,ioos:station:USF.COMPS:ANC:1,2009-10-01T22:12:00Z,28.1930,-82.7890,1.0,23.283,1111122 
COMPS,ioos:station:USF.COMPS:ANC:1,2009-10-01T22:18:00Z,28.1930,-82.7890,1.0,23.148,1111122 
COMPS,ioos:station:USF.COMPS:ANC:1,2009-10-01T22:24:00Z,28.1930,-82.7890,1.0,22.954,1111122 
COMPS,ioos:station:USF.COMPS:ANC:1,2009-10-01T22:30:00Z,28.1930,-82.7890,1.0,22.821,1111122 
COMPS,ioos:station:USF.COMPS:ANC:1,2009-10-01T22:36:00Z,28.1930,-82.7890,1.0,22.714,1111122 
COMPS,ioos:station:USF.COMPS:ANC:1,2009-10-01T22:42:00Z,28.1930,-82.7890,1.0,22.607,1111122 
COMPS,ioos:station:USF.COMPS:ANC:1,2009-10-01T22:48:00Z,28.1930,-82.7890,1.0,22.46,1111122 
COMPS,ioos:station:USF.COMPS:ANC:1,2009-10-01T22:54:00Z,28.1930,-82.7890,1.0,22.217,1111122 
COMPS,ioos:station:USF.COMPS:ANC:1,2009-10-01T23:00:00Z,28.1930,-82.7890,1.0,22.018,1111122 
COMPS,ioos:station:USF.COMPS:ANC:1,2009-10-01T23:06:00Z,28.1930,-82.7890,1.0,21.802,1111122 
COMPS,ioos:station:USF.COMPS:ANC:1,2009-10-01T23:12:00Z,28.1930,-82.7890,1.0,21.559,1111122 
COMPS,ioos:station:USF.COMPS:ANC:1,2009-10-01T23:18:00Z,28.1930,-82.7890,1.0,21.357,1111122 
COMPS,ioos:station:USF.COMPS:ANC:1,2009-10-01T23:24:00Z,28.1930,-82.7890,1.0,21.191,1111122 
COMPS,ioos:station:USF.COMPS:ANC:1,2009-10-01T23:30:00Z,28.1930,-82.7890,1.0,20.98,1111122 
COMPS,ioos:station:USF.COMPS:ANC:1,2009-10-01T23:36:00Z,28.1930,-82.7890,1.0,20.787,1111122 
COMPS,ioos:station:USF.COMPS:ANC:1,2009-10-01T23:42:00Z,28.1930,-82.7890,1.0,20.706,1111122 
COMPS,ioos:station:USF.COMPS:ANC:1,2009-10-01T23:48:00Z,28.1930,-82.7890,1.0,20.576,1111122 
COMPS,ioos:station:USF.COMPS:ANC:1,2009-10-01T23:54:00Z,28.1930,-82.7890,1.0,20.454,1111122 
COMPS,ioos:station:USF.COMPS:ANC:1,2009-10-02T00:00:00Z,28.1930,-82.7890,1.0,20.299,1111122 
COMPS,ioos:station:USF.COMPS:ANC:1,2009-10-02T00:06:00Z,28.1930,-82.7890,1.0,20.119,1111122 
COMPS,ioos:station:USF.COMPS:ANC:1,2009-10-02T00:12:00Z,28.1930,-82.7890,1.0,19.965,1111122 
COMPS,ioos:station:USF.COMPS:ANC:1,2009-10-02T00:18:00Z,28.1930,-82.7890,1.0,19.786,1111122 
COMPS,ioos:station:USF.COMPS:ANC:1,2009-10-02T00:24:00Z,28.1930,-82.7890,1.0,19.63,1111122 
COMPS,ioos:station:USF.COMPS:ANC:1,2009-10-02T00:30:00Z,28.1930,-82.7890,1.0,19.498,1111122 
COMPS,ioos:station:USF.COMPS:ANC:1,2009-10-02T00:36:00Z,28.1930,-82.7890,1.0,19.384,1111122 
COMPS,ioos:station:USF.COMPS:ANC:1,2009-10-02T00:42:00Z,28.1930,-82.7890,1.0,19.311,1111122 
COMPS,ioos:station:USF.COMPS:ANC:1,2009-10-02T00:48:00Z,28.1930,-82.7890,1.0,19.276,1111122 
COMPS,ioos:station:USF.COMPS:ANC:1,2009-10-02T00:54:00Z,28.1930,-82.7890,1.0,19.24,1111122 
COMPS,ioos:station:USF.COMPS:ANC:1,2009-10-02T01:00:00Z,28.1930,-82.7890,1.0,19.284,1111122 
COMPS,ioos:station:USF.COMPS:ANC:1,2009-10-02T01:06:00Z,28.1930,-82.7890,1.0,19.324,1111122 
COMPS,ioos:station:USF.COMPS:ANC:1,2009-10-02T01:12:00Z,28.1930,-82.7890,1.0,19.413,1111122 
COMPS,ioos:station:USF.COMPS:ANC:1,2009-10-02T01:18:00Z,28.1930,-82.7890,1.0,19.461,1111122 
COMPS,ioos:station:USF.COMPS:ANC:1,2009-10-02T01:24:00Z,28.1930,-82.7890,1.0,19.515,1111122 
COMPS,ioos:station:USF.COMPS:ANC:1,2009-10-02T01:30:00Z,28.1930,-82.7890,1.0,19.702,1111122 
COMPS,ioos:station:USF.COMPS:ANC:1,2009-10-02T01:36:00Z,28.1930,-82.7890,1.0,19.89,1111122 